SCP
0 0 0 -0 0 0 0 0 0 0 0 0 -0 0 0 0 0 0 0 0 0 0 -0 0 0 -0 0 0 0 0 0 0 0 0 0 0 0 0 0 0 0 0 0 0 0 0 0 0 0 0 0 0 0 0
0 0 0 0 0 0 0 0 0 0 0 0 -0 0 0 0 0 0 0 0 0 0 0 0 0 0 0 0 0 0 0 0 0 0 0 0 0 0 0 0 0 0 0 0 0 0 0 0 0 0 0 0 0 0
0 0 0 0 0 -0 0 0 0 0 0 0 -0 0 0 0 0 0 0 0 0 0 0 0 0 0 0 0 0 0 0 0 0 0 0 0 0 0 0 0 0 0 0 0 0 0 0 0 -0 0 0 0 0 0
0 0 0 0 0 0 0 0 0 0 0 0 0 0 0 0 0 0 0 0 0 0 0 0 0 0 0 0 0 0 0 0 0 0 0 0 0 0 0 0 0 0 0 0 0 0 0 0 0 0 0 0 0 0
0 0 0 0 0 0 0 0 0 0 0 0 0 0 0 0 0 0 0 0 0 0 0 0 0 0 0 0 0 0 0 0 0 0 0 0 0 0 0 0 0 0 0 0 0 0 0 0 0 0 0 0 0 0
0 0 0 0 0 0 0 0 0 0 0 0 0 0 0 0 0 0 -0 0 0 0 0 0 0 0 0 0 0 0 0 0 0 0 0 0 0 0 0 0 0 0 0 0 0 0 -0 0 0 0 0 0 0 0
0 0 0 0 0 0 0 0 0 0 0 0 0 0 0 0 0 0 0 0 0 0 0 0 0 0 0 0 0 0 0 0 0 0 0 0 0 0 0 0 0 0 0 0 0 -0 0 0 0 0 0 0 0 0
0 0 0 0 0 0 0 0 0 0 0 0 0 0 0 0 0 0 0 0 0 0 0 0 0 0 0 0 0 0 0 0 0 0 0 0 0 0 0 0 0 0 0 0 0 -0 0 0 0 0 0 0 0 0
0 0 0 0 0 0 0 0 0 0 0 0 0 0 0 0 0 0 0 0 0 0 0 0 0 -0 0 0 0 0 0 0 0 0 0 0 0 0 0 0 0 0 0 0 0 0 0 0 0 0 0 0 0 0
0 0 0 0 0 0 0 0 0 0 0 0 0 0 0 0 0 0 0 0 0 0 0 0 0 0 0 0 0 0 0 0 0 0 0 0 0 0 0 0 0 0 0 0 0 0 0 0 0 0 0 0 0 0
0 0 0 0 0 0 0 0 0 0 0 0 0 0 0 0 0 0 0 0 0 0 0 0 0 0 0 0 0 0 0 0 -0 0 0 0 0 0 0 0 0 0 0 0 0 0 0 0 0 0 0 0 0 0
0 0 0 0 0 0 0 0 0 0 0 0 0 0 0 0 0 0 0 0 0 0 0 0 0 0 0 0 0 0 0 -0 -0 -0 -0 -0 -0 0 0 0 0 0 0 0 0 0 0 0 0 0 0 0 0 0
0 0 0 0 0 0 0 0 0 0 0 0 0 0 0 0 0 0 0 0 0 0 0 0 0 0 0 0 0 0 -0 0 0 0 0 -0 0 0 0 0 0 0 0 0 0 0 0 0 0 0 0 0 0 0
0 0 0 0 0 0 0 0 0 0 0 0 0 0 0 0 0 0 0 0 0 0 0 0 0 0 0 0 0 0 0 -0 0 0 -0 0 0 0 0 0 0 0 0 0 0 0 0 0 0 0 0 0 0 0
0 0 0 0 0 0 0 0 0 0 0 0 0 0 0 0 0 0 0 0 0 0 0 0 0 0 0 0 0 0 0 0 0 -0 -0 0 -0 0 0 0 0 0 0 0 0 0 0 0 0 0 0 0 0 0
0 0 0 0 0 0 0 0 0 0 0 0 0 0 0 0 0 0 0 0 0 0 0 0 0 0 0 0 0 0 0 -0 -0 -0 -0 0 0 0 0 0 0 0 0 0 0 0 0 0 0 0 0 0 0 0
0 0 0 0 0 0 0 0 0 0 0 0 0 0 0 0 0 0 0 0 0 0 0 0 0 0 0 0 0 0 0 -0 0 0 0 0 0 0 0 0 0 0 0 0 0 0 0 0 0 0 0 0 0 0
0 0 0 0 0 0 0 0 0 0 0 0 0 0 0 0 0 0 0 0 0 0 0 0 0 0 0 0 0 0 0 0 0 0 0 0 0 0 0 0 0 0 0 0 0 0 0 0 0 0 0 0 0 0
0 0 0 0 0 0 0 0 0 0 0 0 0 0 0 0 0 0 0 0 0 0 0 0 0 0 0 0 0 0 0 0 0 0 0 0 0 0 0 0 0 0 0 0 0 0 0 0 0 0 0 0 0 0
0 0 0 0 0 0 0 0 0 0 0 0 0 0 0 0 0 0 0 0 0 0 0 0 0 0 0 0 0 0 0 0 0 0 0 0 0 0 0 0 0 0 0 0 0 0 0 0 0 0 0 0 0 0
0 0 0 -0 0 0 0 0 0 0 0 0 0 0 0 0 0 0 0 0 0 0 0 0 0 0 0 0 0 0 0 0 0 0 0 0 0 0 0 0 0 0 0 0 0 0 0 0 0 0 0 0 0 0
0 0 0 0 0 0 0 0 0 0 0 0 0 0 0 0 0 0 0 0 0 0 0 0 0 0 0 0 0 0 0 0 0 0 0 0 0 0 0 0 0 0 0 0 0 0 0 0 0 0 0 0 0 0
0 0 0 0 0 0 0 0 0 0 0 0 0 0 0 0 0 0 0 0 0 0 0 0 0 0 0 0 0 0 0 0 0 0 0 0 0 0 0 0 0 0 0 0 0 0 0 0 0 0 0 0 0 0
0 0 0 0 0 0 0 0 0 0 0 0 0 0 0 0 0 0 0 0 0 0 0 0 0 0 0 0 0 0 0 0 0 0 0 0 0 0 0 0 0 0 0 0 0 0 0 0 0 0 0 0 0 0
0 0 0 0 0 0 0 0 0 0 0 0 0 0 0 0 0 0 0 0 0 0 0 0 0 0 0 0 0 0 0 0 0 0 0 0 0 0 0 0 0 0 0 0 0 0 0 0 0 0 0 0 0 0
0 0 0 0 0 0 0 0 0 0 0 0 0 0 0 0 0 0 0 0 0 0 0 0 0 0 0 0 0 0 0 0 0 0 0 0 0 0 0 0 0 0 0 0 0 0 0 0 0 0 0 0 0 0
0 0 0 0 0 0 0 0 0 0 0 0 0 0 0 0 0 0 0 0 0 0 0 0 0 0 0 0 0 0 0 0 0 0 0 0 0 0 0 0 0 0 0 0 0 0 0 0 0 0 0 0 0 0
0 0 0 0 0 0 0 0 0 0 0 0 0 0 0 0 0 0 0 0 0 0 0 0 0 0 0 0 0 0 0 0 0 0 0 0 0 0 0 0 0 0 0 0 0 0 0 0 0 0 0 0 0 0
0 0 0 0 0 0 0 0 0 0 0 0 0 0 0 0 0 0 0 0 0 0 0 0 0 0 0 0 0 0 0 0 0 0 0 0 0 0 0 0 0 0 0 0 0 0 0 0 0 0 0 0 0 0
0 0 0 0 0 0 0 0 0 0 0 0 0 0 0 0 0 0 0 0 0 0 0 0 0 0 0 0 0 0 0 0 0 0 0 0 0 0 0 0 0 0 0 0 0 0 0 0 0 0 0 0 0 0
0 0 0 0 0 0 0 0 0 0 0 0 0 0 0 0 0 0 0 0 0 0 0 0 0 0 0 0 0 0 0 0 0 0 0 0 0 0 0 0 0 0 0 0 0 0 0 0 0 0 0 0 0 0
0 0 0 0 0 0 0 0 0 0 0 0 0 0 0 0 0 0 0 0 0 0 0 0 0 0 0 0 0 0 0 0 0 0 0 0 0 0 0 0 0 0 0 0 0 0 0 0 0 0 0 0 0 0
0 0 0 0 0 0 0 0 0 0 0 0 0 0 0 0 0 0 0 0 0 0 0 0 0 0 0 0 0 0 0 0 0 0 0 0 0 0 0 0 0 0 0 0 0 0 0 0 0 0 0 0 0 0
Wind_Speed_500mb
29 26 25 25 26 39 34 24 23 24 22 19 16 15 10 8 10 15 18 20 25 12 39 30 27 23 14 8 7 6 6 2 4 9 6 6 6 9 5 5 8 16 11 7 7 3 15 18 12 14 7 2 3 8
34 33 29 28 30 30 41 37 27 27 27 25 21 17 17 16 13 14 20 17 27 30 20 18 42 59 44 44 28 22 6 8 18 5 6 4 4 4 5 7 4 6 9 7 13 12 7 44 12 28 11 7 4 10
40 37 35 32 34 32 33 39 34 25 24 28 26 20 18 19 20 19 21 23 21 25 34 45 44 54 58 57 45 27 26 13 13 9 13 6 7 6 8 7 4 5 6 4 6 8 15 26 42 16 26 4 5 4
47 43 42 37 39 36 33 38 43 34 28 30 29 24 19 19 21 21 19 21 23 13 8 13 29 42 54 57 52 51 33 29 20 16 5 4 6 8 6 5 6 6 6 3 10 11 18 37 30 40 19 14 12 14
52 49 48 44 41 39 37 33 39 41 31 31 28 27 22 20 23 15 9 13 25 23 6 10 17 31 36 46 54 58 35 30 24 10 4 5 3 6 1 3 5 18 12 6 7 11 11 24 19 14 35 36 25 24
58 55 52 49 46 42 40 36 37 39 36 33 29 25 22 19 15 12 5 11 29 23 8 5 9 10 23 26 33 43 29 32 17 13 8 6 7 6 4 7 12 39 41 50 19 27 26 49 31 23 43 36 36 35
64 59 57 54 49 44 42 40 34 41 39 34 34 27 23 18 17 10 7 12 14 19 7 7 6 5 13 17 18 26 32 10 12 11 13 13 11 12 4 9 8 34 41 41 39 23 15 38 25 26 29 39 44 42
66 66 63 59 55 51 45 42 36 45 39 29 34 29 23 19 19 25 25 20 13 18 11 5 4 4 18 10 7 12 12 13 9 7 10 9 12 8 8 20 45 43 45 38 40 31 20 22 40 21 17 27 39 36
65 65 67 64 60 55 48 46 39 46 43 32 32 30 19 20 15 15 23 22 23 24 7 7 8 8 18 8 9 10 10 4 8 5 7 17 6 13 18 22 42 52 68 70 56 52 45 28 30 23 24 30 32 31
70 63 66 69 65 61 54 52 45 49 47 35 50 19 13 15 25 17 13 14 15 16 14 6 10 4 15 8 3 7 2 3 5 8 12 7 10 49 35 29 30 32 50 43 39 41 46 40 36 34 29 25 23 22
78 72 64 68 71 67 61 59 51 53 47 67 26 16 16 18 21 12 8 8 9 4 16 13 27 9 17 5 5 7 4 4 4 7 8 6 10 18 62 76 64 43 29 36 42 40 43 41 43 34 27 24 22 19
67 70 70 67 80 74 69 68 61 71 58 53 31 27 22 14 10 6 7 3 9 12 15 13 13 11 14 11 6 7 5 4 9 7 3 8 9 24 32 72 80 63 48 40 36 30 36 29 24 20 20 21 22 24
68 70 79 81 78 83 80 75 72 81 60 49 20 18 16 13 9 15 17 8 6 15 25 21 9 13 11 8 7 4 7 7 6 2 8 10 5 10 21 40 49 49 45 41 36 28 21 19 27 31 29 25 19 14
70 73 76 68 83 96 89 81 81 83 68 21 20 14 13 10 12 12 10 11 18 22 44 43 15 9 6 6 3 7 0 3 2 5 12 6 23 29 26 29 39 42 37 37 35 37 39 38 35 30 23 15 8 0
73 73 78 76 92 98 94 94 88 94 52 18 17 14 15 18 8 13 22 26 21 51 65 23 11 8 2 8 3 7 6 8 11 10 6 14 37 40 40 41 41 46 49 52 51 45 38 30 23 18 12 7 4 9
70 64 75 71 78 99 112 83 92 84 33 18 19 7 4 9 1 14 25 20 44 61 43 12 8 6 6 9 7 15 14 12 8 7 11 46 46 44 48 52 55 55 51 46 41 33 24 16 9 5 6 8 12 15
65 64 75 75 70 84 96 90 71 25 30 15 9 32 34 23 23 27 33 38 61 62 8 7 11 16 7 5 5 9 11 7 7 18 50 53 57 58 55 52 47 41 35 29 22 15 10 8 8 8 11 12 17 19
69 57 55 62 71 76 93 74 38 26 15 18 10 31 45 14 35 30 29 62 47 26 25 12 20 6 12 12 8 8 12 10 29 57 62 58 56 52 45 39 32 26 19 15 11 6 3 5 10 11 13 13 11 9
63 64 64 61 64 63 33 38 35 9 11 26 32 52 38 19 25 35 50 76 30 39 23 16 7 8 8 10 10 22 41 46 69 67 62 55 48 40 34 26 19 14 10 5 1 5 6 7 7 7 8 8 9 7
49 55 66 71 50 18 23 17 70 19 10 22 43 49 24 15 26 36 47 60 35 20 4 4 9 8 10 7 18 31 58 71 87 74 59 52 44 34 26 18 15 12 12 11 11 10 10 10 10 8 7 7 8 9
42 51 48 48 49 26 11 18 23 31 31 17 44 49 21 33 24 20 29 43 14 8 4 8 8 10 12 14 19 39 59 78 85 74 85 66 48 34 28 24 20 17 16 18 17 14 10 7 6 6 5 4 5 8
36 49 40 36 21 13 8 5 10 20 19 37 36 20 18 4 15 21 39 9 7 9 8 5 10 14 16 21 32 49 64 73 64 41 61 58 51 42 32 26 26 25 21 16 12 10 8 7 6 3 2 3 4 5
41 39 23 21 11 6 0 16 6 3 11 16 26 10 5 7 19 45 9 5 4 6 12 13 15 18 22 32 43 51 61 56 47 50 54 46 38 34 34 31 24 16 17 17 15 12 10 9 8 7 5 3 1 0
38 27 10 22 9 6 7 3 8 5 12 8 9 11 8 7 22 6 7 5 9 5 11 17 23 32 35 40 48 54 53 53 49 53 48 46 45 41 33 30 28 24 19 18 17 15 13 12 11 11 10 9 8 6
12 13 10 5 8 8 6 6 7 4 6 6 9 7 7 13 6 6 4 5 10 14 18 22 25 32 41 44 43 46 47 47 51 54 48 41 42 44 40 34 31 29 27 23 19 17 14 13 12 13 12 11 10 10
6 13 10 4 6 8 4 9 9 10 5 8 7 9 8 6 8 7 4 11 8 7 8 15 21 29 37 36 40 43 45 43 44 47 47 40 36 33 37 36 33 29 26 23 19 17 16 15 16 17 17 18 18 16
12 11 11 21 11 7 7 13 15 7 7 7 8 7 7 9 7 3 5 14 7 7 2 11 19 25 33 36 36 38 38 38 36 36 42 39 35 32 28 30 29 29 30 27 23 21 18 15 14 14 13 13 12 11
13 22 14 24 16 26 9 9 11 11 8 17 10 13 9 8 4 7 10 11 9 10 14 17 22 28 32 36 36 34 34 34 39 41 41 39 35 31 29 27 28 29 27 25 22 20 17 13 10 7 7 7 7 8
11 25 13 14 12 18 17 13 8 12 19 9 7 7 8 12 16 17 21 17 14 19 30 33 33 30 33 36 39 42 45 43 43 44 42 40 35 29 27 25 23 21 19 17 16 15 13 11 8 6 4 4 5 8
15 20 9 13 13 15 20 24 24 35 31 35 51 84 77 66 57 39 38 35 35 36 32 33 37 39 43 42 44 39 34 28 27 27 30 31 28 26 23 20 17 15 13 11 10 8 8 7 6 3 1 4 6 8
16 16 12 15 14 44 55 61 71 83 83 79 71 78 64 51 76 71 59 47 42 43 44 44 42 41 41 41 38 35 34 28 26 25 25 25 24 22 20 18 16 14 12 10 9 7 5 3 2 1 2 3 4 5
29 26 21 41 38 55 57 61 61 70 66 64 53 43 38 25 20 40 59 42 45 50 48 44 44 42 36 33 32 32 30 27 26 25 22 20 18 18 17 15 13 12 10 9 8 7 6 4 3 2 3 6 9 12
32 39 43 36 20 16 21 13 12 18 29 18 29 32 31 16 18 29 35 43 37 31 33 37 37 34 30 28 27 25 22 20 18 17 15 15 13 12 11 11 9 6 4 2 3 3 4 5 7 9 11 14 16 18
Wind_Direction_500mb
251 248 236 249 241 216 221 221 229 245 244 244 249 238 232 207 193 224 228 223 229 238 257 250 248 241 259 228 146 177 96 221 106 183 166 206 165 213 165 188 173 192 177 170 110 125 266 169 122 182 200 188 349 22
242 247 240 235 249 236 222 215 223 233 245 244 245 246 235 230 230 236 253 245 227 236 252 263 251 245 248 243 246 208 241 170 177 160 211 150 174 160 195 205 93 231 213 192 186 202 247 193 198 194 145 132 50 31
241 239 243 234 239 243 231 220 216 229 238 243 244 244 244 240 248 255 255 259 227 248 269 255 250 250 242 238 235 228 226 226 204 212 159 203 193 135 179 233 137 266 79 265 39 267 247 237 222 211 214 182 137 109
240 235 237 238 233 240 239 224 219 220 233 241 242 244 250 244 247 258 254 253 234 252 260 262 253 240 239 234 234 234 237 214 216 192 139 152 172 201 189 168 199 175 94 165 274 292 294 266 247 228 205 187 173 157
236 235 234 234 237 229 239 232 220 218 223 233 238 242 250 249 247 255 229 257 216 210 276 281 272 244 238 223 232 237 225 216 192 150 149 218 188 129 29 52 232 183 174 170 220 274 312 300 284 239 242 223 204 184
235 233 232 232 233 229 225 235 218 213 214 226 230 237 245 244 229 178 178 224 211 227 273 301 277 244 226 227 234 228 196 202 211 164 173 206 209 181 150 217 239 215 228 240 209 231 268 308 284 232 257 231 208 193
236 232 229 229 229 230 219 228 223 206 210 221 229 237 241 226 219 200 188 159 195 205 249 282 252 237 210 201 199 208 208 163 170 171 186 174 194 188 214 236 236 225 226 224 222 222 254 286 268 251 228 214 204 202
236 232 228 225 224 227 219 218 219 198 207 218 219 231 234 220 240 241 234 233 237 197 227 244 265 248 178 160 176 181 172 173 199 214 170 160 154 199 245 234 226 225 213 210 217 224 256 264 270 246 202 185 191 196
232 231 227 222 220 222 218 211 212 194 198 206 204 204 195 205 219 231 231 212 219 205 228 194 165 228 175 155 151 163 167 147 197 213 209 161 189 218 224 180 211 224 218 227 238 232 228 229 243 193 170 158 168 170
225 226 225 219 217 219 215 207 205 190 187 197 187 178 200 202 214 172 151 176 190 210 224 207 170 191 172 147 134 119 167 178 195 239 168 220 243 236 215 208 231 238 231 229 201 200 206 205 207 189 176 169 172 182
227 220 222 220 213 215 211 203 198 182 184 184 174 178 180 180 168 191 187 191 184 255 206 208 183 149 179 134 150 207 174 160 216 249 176 244 262 228 233 233 232 241 239 224 223 227 217 206 181 186 191 194 194 194
222 218 221 217 212 212 210 201 192 182 190 195 175 158 157 187 205 148 198 185 206 218 185 157 170 140 147 152 127 188 179 145 245 138 160 259 255 219 215 215 215 215 209 200 196 183 179 172 176 198 204 188 174 167
225 223 228 215 211 209 212 204 194 187 187 167 163 160 166 178 202 205 189 205 206 179 170 160 138 148 139 156 104 147 164 217 127 195 233 232 242 219 202 191 182 181 185 182 178 184 181 188 179 171 160 154 154 145
225 222 226 229 207 207 209 206 194 193 189 181 163 165 192 196 229 194 184 170 187 157 151 150 120 132 140 90 130 153 50 74 265 252 237 245 179 162 163 170 174 166 168 161 156 158 151 150 147 143 141 143 141 173
222 221 225 224 213 204 208 201 196 189 194 198 166 206 196 211 213 183 171 137 141 157 147 121 99 133 13 103 53 106 50 246 219 234 236 163 156 151 150 150 150 145 144 150 144 139 141 140 138 135 138 151 215 257
217 221 213 212 209 197 202 198 187 186 197 208 203 111 89 127 264 168 178 146 153 153 144 132 113 87 222 140 112 211 141 222 247 222 164 154 152 146 147 146 143 140 140 137 136 140 141 145 146 174 218 244 261 271
213 218 217 207 203 204 196 192 192 196 192 208 207 193 178 190 188 179 178 171 164 158 161 131 131 198 113 60 253 195 204 219 220 165 154 155 147 143 142 140 138 137 136 135 139 146 163 182 206 228 247 282 289 292
213 217 209 203 200 198 195 192 194 209 183 187 157 171 181 193 181 169 172 168 161 198 151 183 129 135 180 176 246 224 181 162 150 151 149 148 146 143 143 140 135 135 138 144 154 166 217 272 284 284 275 268 264 259
211 210 202 190 181 195 204 189 189 202 190 163 165 181 179 173 184 194 179 176 177 179 155 144 116 185 214 212 195 169 169 153 151 152 153 153 153 151 148 146 143 140 138 135 214 244 246 246 238 223 216 214 223 232
209 208 205 213 201 215 197 213 187 173 171 168 167 160 172 174 158 163 168 168 160 159 128 163 211 204 204 216 191 193 170 163 156 151 154 159 160 161 160 157 158 162 171 172 172 170 174 176 179 185 197 227 259 272
196 203 206 214 232 254 281 174 162 165 140 126 144 150 138 148 132 149 158 163 181 198 217 236 245 219 201 191 192 180 175 170 169 170 169 165 166 167 170 169 166 159 163 162 166 163 169 177 221 242 253 276 283 290
191 197 195 207 215 243 237 117 108 135 128 139 133 116 116 107 140 156 151 158 160 172 205 234 215 202 190 189 178 176 178 177 178 179 173 172 168 172 174 175 176 175 170 167 168 174 186 197 192 189 227 279 297 316
188 195 193 202 214 177 187 126 81 199 116 145 123 104 130 137 147 141 81 75 112 185 206 197 182 173 173 164 164 170 176 181 174 173 176 176 172 170 172 167 162 175 169 166 164 171 175 173 162 148 149 150 144 43
170 177 228 186 170 136 163 124 97 41 101 138 104 111 132 128 145 68 104 70 31 125 170 165 162 157 154 154 156 161 168 176 175 169 173 176 171 165 168 168 165 166 170 171 167 166 164 152 145 138 139 144 143 131
121 186 237 163 132 142 131 103 91 8 96 96 102 117 148 141 88 71 86 49 55 91 134 152 165 172 162 154 154 156 159 167 169 166 163 171 170 165 164 166 166 169 166 159 159 160 161 152 138 133 128 116 109 99
136 17 3 344 135 147 188 101 132 201 139 90 84 116 103 87 76 88 44 351 20 46 107 151 155 166 163 165 158 156 155 161 166 166 157 164 170 177 167 163 164 161 157 155 161 159 157 148 140 132 126 119 110 99
41 351 359 15 327 15 93 58 76 83 82 103 140 110 88 81 92 62 11 25 46 23 117 161 170 173 164 157 156 156 158 160 164 168 160 158 160 160 164 162 162 161 157 156 158 159 158 152 139 129 119 107 101 96
21 18 9 350 51 32 69 54 35 14 1 354 54 50 76 55 74 10 31 63 87 103 117 133 145 153 155 155 153 154 154 158 158 157 155 152 155 161 163 162 158 154 152 153 156 158 157 154 147 133 111 95 80 69
20 357 41 17 46 42 38 29 1 316 332 5 93 93 97 70 71 85 83 95 117 130 125 124 119 129 138 143 147 146 143 146 150 151 152 145 146 147 151 153 151 149 148 150 155 155 153 151 147 135 109 69 30 14
352 19 85 38 51 39 27 37 54 57 82 97 103 103 91 76 73 93 98 100 100 94 100 113 123 132 129 138 138 142 144 147 150 154 148 144 143 144 147 149 150 152 153 153 156 159 163 159 157 158 73 5 345 333
17 33 59 80 92 99 94 90 85 82 82 88 93 93 98 95 70 66 68 76 87 97 102 101 104 110 120 124 129 132 124 127 133 135 137 136 137 139 142 144 147 152 155 159 166 168 169 164 165 180 232 267 286 302
71 74 101 107 108 110 98 88 83 77 71 65 60 66 70 66 68 36 33 59 75 78 79 86 90 88 96 105 112 116 117 119 122 121 124 128 133 136 135 134 135 139 144 152 159 161 161 171 192 242 290 305 310 311
90 95 97 96 121 138 153 101 84 74 49 52 39 38 43 61 71 24 32 41 51 62 71 75 77 81 87 95 100 104 108 110 114 119 129 135 137 140 144 146 147 150 159 193 229 250 271 288 296 301 304 305 306 308
Wind_Speed_850mb
29 26 25 25 26 39 34 24 23 24 22 19 16 15 10 8 10 15 18 20 25 12 39 30 27 23 14 8 7 6 6 2 4 9 6 6 6 9 5 5 8 16 11 7 7 3 15 18 12 14 7 2 3 8
34 33 29 28 30 30 41 37 27 27 27 25 21 17 17 16 13 14 20 17 27 30 20 18 42 59 44 44 28 22 6 8 18 5 6 4 4 4 5 7 4 6 9 7 13 12 7 44 12 28 11 7 4 10
40 37 35 32 34 32 33 39 34 25 24 28 26 20 18 19 20 19 21 23 21 25 34 45 44 54 58 57 45 27 26 13 13 9 13 6 7 6 8 7 4 5 6 4 6 8 15 26 42 16 26 4 5 4
47 43 42 37 39 36 33 38 43 34 28 30 29 24 19 19 21 21 19 21 23 13 8 13 29 42 54 57 52 51 33 29 20 16 5 4 6 8 6 5 6 6 6 3 10 11 18 37 30 40 19 14 12 14
52 49 48 44 41 39 37 33 39 41 31 31 28 27 22 20 23 15 9 13 25 23 6 10 17 31 36 46 54 58 35 30 24 10 4 5 3 6 1 3 5 18 12 6 7 11 11 24 19 14 35 36 25 24
58 55 52 49 46 42 40 36 37 39 36 33 29 25 22 19 15 12 5 11 29 23 8 5 9 10 23 26 33 43 29 32 17 13 8 6 7 6 4 7 12 39 41 50 19 27 26 49 31 23 43 36 36 35
64 59 57 54 49 44 42 40 34 41 39 34 34 27 23 18 17 10 7 12 14 19 7 7 6 5 13 17 18 26 32 10 12 11 13 13 11 12 4 9 8 34 41 41 39 23 15 38 25 26 29 39 44 42
66 66 63 59 55 51 45 42 36 45 39 29 34 29 23 19 19 25 25 20 13 18 11 5 4 4 18 10 7 12 12 13 9 7 10 9 12 8 8 20 45 43 45 38 40 31 20 22 40 21 17 27 39 36
65 65 67 64 60 55 48 46 39 46 43 32 32 30 19 20 15 15 23 22 23 24 7 7 8 8 18 8 9 10 10 4 8 5 7 17 6 13 18 22 42 52 68 70 56 52 45 28 30 23 24 30 32 31
70 63 66 69 65 61 54 52 45 49 47 35 50 19 13 15 25 17 13 14 15 16 14 6 10 4 15 8 3 7 2 3 5 8 12 7 10 49 35 29 30 32 50 43 39 41 46 40 36 34 29 25 23 22
78 72 64 68 71 67 61 59 51 53 47 67 26 16 16 18 21 12 8 8 9 4 16 13 27 9 17 5 5 7 4 4 4 7 8 6 10 18 62 76 64 43 29 36 42 40 43 41 43 34 27 24 22 19
67 70 70 67 80 74 69 68 61 71 58 53 31 27 22 14 10 6 7 3 9 12 15 13 13 11 14 11 6 7 5 4 9 7 3 8 9 24 32 72 80 63 48 40 36 30 36 29 24 20 20 21 22 24
68 70 79 81 78 83 80 75 72 81 60 49 20 18 16 13 9 15 17 8 6 15 25 21 9 13 11 8 7 4 7 7 6 2 8 10 5 10 21 40 49 49 45 41 36 28 21 19 27 31 29 25 19 14
70 73 76 68 83 96 89 81 81 83 68 21 20 14 13 10 12 12 10 11 18 22 44 43 15 9 6 6 3 7 0 3 2 5 12 6 23 29 26 29 39 42 37 37 35 37 39 38 35 30 23 15 8 0
73 73 78 76 92 98 94 94 88 94 52 18 17 14 15 18 8 13 22 26 21 51 65 23 11 8 2 8 3 7 6 8 11 10 6 14 37 40 40 41 41 46 49 52 51 45 38 30 23 18 12 7 4 9
70 64 75 71 78 99 112 83 92 84 33 18 19 7 4 9 1 14 25 20 44 61 43 12 8 6 6 9 7 15 14 12 8 7 11 46 46 44 48 52 55 55 51 46 41 33 24 16 9 5 6 8 12 15
65 64 75 75 70 84 96 90 71 25 30 15 9 32 34 23 23 27 33 38 61 62 8 7 11 16 7 5 5 9 11 7 7 18 50 53 57 58 55 52 47 41 35 29 22 15 10 8 8 8 11 12 17 19
69 57 55 62 71 76 93 74 38 26 15 18 10 31 45 14 35 30 29 62 47 26 25 12 20 6 12 12 8 8 12 10 29 57 62 58 56 52 45 39 32 26 19 15 11 6 3 5 10 11 13 13 11 9
63 64 64 61 64 63 33 38 35 9 11 26 32 52 38 19 25 35 50 76 30 39 23 16 7 8 8 10 10 22 41 46 69 67 62 55 48 40 34 26 19 14 10 5 1 5 6 7 7 7 8 8 9 7
49 55 66 71 50 18 23 17 70 19 10 22 43 49 24 15 26 36 47 60 35 20 4 4 9 8 10 7 18 31 58 71 87 74 59 52 44 34 26 18 15 12 12 11 11 10 10 10 10 8 7 7 8 9
42 51 48 48 49 26 11 18 23 31 31 17 44 49 21 33 24 20 29 43 14 8 4 8 8 10 12 14 19 39 59 78 85 74 85 66 48 34 28 24 20 17 16 18 17 14 10 7 6 6 5 4 5 8
36 49 40 36 21 13 8 5 10 20 19 37 36 20 18 4 15 21 39 9 7 9 8 5 10 14 16 21 32 49 64 73 64 41 61 58 51 42 32 26 26 25 21 16 12 10 8 7 6 3 2 3 4 5
41 39 23 21 11 6 0 16 6 3 11 16 26 10 5 7 19 45 9 5 4 6 12 13 15 18 22 32 43 51 61 56 47 50 54 46 38 34 34 31 24 16 17 17 15 12 10 9 8 7 5 3 1 0
38 27 10 22 9 6 7 3 8 5 12 8 9 11 8 7 22 6 7 5 9 5 11 17 23 32 35 40 48 54 53 53 49 53 48 46 45 41 33 30 28 24 19 18 17 15 13 12 11 11 10 9 8 6
12 13 10 5 8 8 6 6 7 4 6 6 9 7 7 13 6 6 4 5 10 14 18 22 25 32 41 44 43 46 47 47 51 54 48 41 42 44 40 34 31 29 27 23 19 17 14 13 12 13 12 11 10 10
6 13 10 4 6 8 4 9 9 10 5 8 7 9 8 6 8 7 4 11 8 7 8 15 21 29 37 36 40 43 45 43 44 47 47 40 36 33 37 36 33 29 26 23 19 17 16 15 16 17 17 18 18 16
12 11 11 21 11 7 7 13 15 7 7 7 8 7 7 9 7 3 5 14 7 7 2 11 19 25 33 36 36 38 38 38 36 36 42 39 35 32 28 30 29 29 30 27 23 21 18 15 14 14 13 13 12 11
13 22 14 24 16 26 9 9 11 11 8 17 10 13 9 8 4 7 10 11 9 10 14 17 22 28 32 36 36 34 34 34 39 41 41 39 35 31 29 27 28 29 27 25 22 20 17 13 10 7 7 7 7 8
11 25 13 14 12 18 17 13 8 12 19 9 7 7 8 12 16 17 21 17 14 19 30 33 33 30 33 36 39 42 45 43 43 44 42 40 35 29 27 25 23 21 19 17 16 15 13 11 8 6 4 4 5 8
15 20 9 13 13 15 20 24 24 35 31 35 51 84 77 66 57 39 38 35 35 36 32 33 37 39 43 42 44 39 34 28 27 27 30 31 28 26 23 20 17 15 13 11 10 8 8 7 6 3 1 4 6 8
16 16 12 15 14 44 55 61 71 83 83 79 71 78 64 51 76 71 59 47 42 43 44 44 42 41 41 41 38 35 34 28 26 25 25 25 24 22 20 18 16 14 12 10 9 7 5 3 2 1 2 3 4 5
29 26 21 41 38 55 57 61 61 70 66 64 53 43 38 25 20 40 59 42 45 50 48 44 44 42 36 33 32 32 30 27 26 25 22 20 18 18 17 15 13 12 10 9 8 7 6 4 3 2 3 6 9 12
32 39 43 36 20 16 21 13 12 18 29 18 29 32 31 16 18 29 35 43 37 31 33 37 37 34 30 28 27 25 22 20 18 17 15 15 13 12 11 11 9 6 4 2 3 3 4 5 7 9 11 14 16 18
Wind_Direction_850mb
251 248 236 249 241 216 221 221 229 245 244 244 249 238 232 207 193 224 228 223 229 238 257 250 248 241 259 228 146 177 96 221 106 183 166 206 165 213 165 188 173 192 177 170 110 125 266 169 122 182 200 188 349 22
242 247 240 235 249 236 222 215 223 233 245 244 245 246 235 230 230 236 253 245 227 236 252 263 251 245 248 243 246 208 241 170 177 160 211 150 174 160 195 205 93 231 213 192 186 202 247 193 198 194 145 132 50 31
241 239 243 234 239 243 231 220 216 229 238 243 244 244 244 240 248 255 255 259 227 248 269 255 250 250 242 238 235 228 226 226 204 212 159 203 193 135 179 233 137 266 79 265 39 267 247 237 222 211 214 182 137 109
240 235 237 238 233 240 239 224 219 220 233 241 242 244 250 244 247 258 254 253 234 252 260 262 253 240 239 234 234 234 237 214 216 192 139 152 172 201 189 168 199 175 94 165 274 292 294 266 247 228 205 187 173 157
236 235 234 234 237 229 239 232 220 218 223 233 238 242 250 249 247 255 229 257 216 210 276 281 272 244 238 223 232 237 225 216 192 150 149 218 188 129 29 52 232 183 174 170 220 274 312 300 284 239 242 223 204 184
235 233 232 232 233 229 225 235 218 213 214 226 230 237 245 244 229 178 178 224 211 227 273 301 277 244 226 227 234 228 196 202 211 164 173 206 209 181 150 217 239 215 228 240 209 231 268 308 284 232 257 231 208 193
236 232 229 229 229 230 219 228 223 206 210 221 229 237 241 226 219 200 188 159 195 205 249 282 252 237 210 201 199 208 208 163 170 171 186 174 194 188 214 236 236 225 226 224 222 222 254 286 268 251 228 214 204 202
236 232 228 225 224 227 219 218 219 198 207 218 219 231 234 220 240 241 234 233 237 197 227 244 265 248 178 160 176 181 172 173 199 214 170 160 154 199 245 234 226 225 213 210 217 224 256 264 270 246 202 185 191 196
232 231 227 222 220 222 218 211 212 194 198 206 204 204 195 205 219 231 231 212 219 205 228 194 165 228 175 155 151 163 167 147 197 213 209 161 189 218 224 180 211 224 218 227 238 232 228 229 243 193 170 158 168 170
225 226 225 219 217 219 215 207 205 190 187 197 187 178 200 202 214 172 151 176 190 210 224 207 170 191 172 147 134 119 167 178 195 239 168 220 243 236 215 208 231 238 231 229 201 200 206 205 207 189 176 169 172 182
227 220 222 220 213 215 211 203 198 182 184 184 174 178 180 180 168 191 187 191 184 255 206 208 183 149 179 134 150 207 174 160 216 249 176 244 262 228 233 233 232 241 239 224 223 227 217 206 181 186 191 194 194 194
222 218 221 217 212 212 210 201 192 182 190 195 175 158 157 187 205 148 198 185 206 218 185 157 170 140 147 152 127 188 179 145 245 138 160 259 255 219 215 215 215 215 209 200 196 183 179 172 176 198 204 188 174 167
225 223 228 215 211 209 212 204 194 187 187 167 163 160 166 178 202 205 189 205 206 179 170 160 138 148 139 156 104 147 164 217 127 195 233 232 242 219 202 191 182 181 185 182 178 184 181 188 179 171 160 154 154 145
225 222 226 229 207 207 209 206 194 193 189 181 163 165 192 196 229 194 184 170 187 157 151 150 120 132 140 90 130 153 50 74 265 252 237 245 179 162 163 170 174 166 168 161 156 158 151 150 147 143 141 143 141 173
222 221 225 224 213 204 208 201 196 189 194 198 166 206 196 211 213 183 171 137 141 157 147 121 99 133 13 103 53 106 50 246 219 234 236 163 156 151 150 150 150 145 144 150 144 139 141 140 138 135 138 151 215 257
217 221 213 212 209 197 202 198 187 186 197 208 203 111 89 127 264 168 178 146 153 153 144 132 113 87 222 140 112 211 141 222 247 222 164 154 152 146 147 146 143 140 140 137 136 140 141 145 146 174 218 244 261 271
213 218 217 207 203 204 196 192 192 196 192 208 207 193 178 190 188 179 178 171 164 158 161 131 131 198 113 60 253 195 204 219 220 165 154 155 147 143 142 140 138 137 136 135 139 146 163 182 206 228 247 282 289 292
213 217 209 203 200 198 195 192 194 209 183 187 157 171 181 193 181 169 172 168 161 198 151 183 129 135 180 176 246 224 181 162 150 151 149 148 146 143 143 140 135 135 138 144 154 166 217 272 284 284 275 268 264 259
211 210 202 190 181 195 204 189 189 202 190 163 165 181 179 173 184 194 179 176 177 179 155 144 116 185 214 212 195 169 169 153 151 152 153 153 153 151 148 146 143 140 138 135 214 244 246 246 238 223 216 214 223 232
209 208 205 213 201 215 197 213 187 173 171 168 167 160 172 174 158 163 168 168 160 159 128 163 211 204 204 216 191 193 170 163 156 151 154 159 160 161 160 157 158 162 171 172 172 170 174 176 179 185 197 227 259 272
196 203 206 214 232 254 281 174 162 165 140 126 144 150 138 148 132 149 158 163 181 198 217 236 245 219 201 191 192 180 175 170 169 170 169 165 166 167 170 169 166 159 163 162 166 163 169 177 221 242 253 276 283 290
191 197 195 207 215 243 237 117 108 135 128 139 133 116 116 107 140 156 151 158 160 172 205 234 215 202 190 189 178 176 178 177 178 179 173 172 168 172 174 175 176 175 170 167 168 174 186 197 192 189 227 279 297 316
188 195 193 202 214 177 187 126 81 199 116 145 123 104 130 137 147 141 81 75 112 185 206 197 182 173 173 164 164 170 176 181 174 173 176 176 172 170 172 167 162 175 169 166 164 171 175 173 162 148 149 150 144 43
170 177 228 186 170 136 163 124 97 41 101 138 104 111 132 128 145 68 104 70 31 125 170 165 162 157 154 154 156 161 168 176 175 169 173 176 171 165 168 168 165 166 170 171 167 166 164 152 145 138 139 144 143 131
121 186 237 163 132 142 131 103 91 8 96 96 102 117 148 141 88 71 86 49 55 91 134 152 165 172 162 154 154 156 159 167 169 166 163 171 170 165 164 166 166 169 166 159 159 160 161 152 138 133 128 116 109 99
136 17 3 344 135 147 188 101 132 201 139 90 84 116 103 87 76 88 44 351 20 46 107 151 155 166 163 165 158 156 155 161 166 166 157 164 170 177 167 163 164 161 157 155 161 159 157 148 140 132 126 119 110 99
41 351 359 15 327 15 93 58 76 83 82 103 140 110 88 81 92 62 11 25 46 23 117 161 170 173 164 157 156 156 158 160 164 168 160 158 160 160 164 162 162 161 157 156 158 159 158 152 139 129 119 107 101 96
21 18 9 350 51 32 69 54 35 14 1 354 54 50 76 55 74 10 31 63 87 103 117 133 145 153 155 155 153 154 154 158 158 157 155 152 155 161 163 162 158 154 152 153 156 158 157 154 147 133 111 95 80 69
20 357 41 17 46 42 38 29 1 316 332 5 93 93 97 70 71 85 83 95 117 130 125 124 119 129 138 143 147 146 143 146 150 151 152 145 146 147 151 153 151 149 148 150 155 155 153 151 147 135 109 69 30 14
352 19 85 38 51 39 27 37 54 57 82 97 103 103 91 76 73 93 98 100 100 94 100 113 123 132 129 138 138 142 144 147 150 154 148 144 143 144 147 149 150 152 153 153 156 159 163 159 157 158 73 5 345 333
17 33 59 80 92 99 94 90 85 82 82 88 93 93 98 95 70 66 68 76 87 97 102 101 104 110 120 124 129 132 124 127 133 135 137 136 137 139 142 144 147 152 155 159 166 168 169 164 165 180 232 267 286 302
71 74 101 107 108 110 98 88 83 77 71 65 60 66 70 66 68 36 33 59 75 78 79 86 90 88 96 105 112 116 117 119 122 121 124 128 133 136 135 134 135 139 144 152 159 161 161 171 192 242 290 305 310 311
90 95 97 96 121 138 153 101 84 74 49 52 39 38 43 61 71 24 32 41 51 62 71 75 77 81 87 95 100 104 108 110 114 119 129 135 137 140 144 146 147 150 159 193 229 250 271 288 296 301 304 305 306 308